APRIZESAT 7 (39416 NORAD) Tracking and Keplerian Element Data

This shows tracking and keplerian element data for the satellite.

Feedback or suggestion? Click here.




ElementValue
Catalog39416
NameAPRIZESAT 7
Epoch Orbit27424
Epoch Day349.53918331
Epoch Year2018
RAAN18.4559
Inclination97.5639
Eccentricity0.0039791
Argument of Perigee255.2506
Mean Anonmoly104.4298
Mean Motion14.83849504
Decay Rate6.6E-07
L11 39416U 13066A 18349.53918331 .00000066 00000-0 14135-4 0 9997
L22 39416 97.5639 18.4559 0039791 255.2506 104.4298 14.83849504274243

Live tracking and technical data element details for APRIZESAT 7 (NORAD 39416). APRIZESAT 7 can be tracked NOW for your location showing map with azimuth and elevation plus other details from your city location.

Track the satellite on the map from your city or location and see movement details for azimuth, elevation, latitude, longitude, range, height, and movement on the map or in text.







IsCatalogInMostPopularTable: catalog: 39416, numindb: 90
Update: records affected: 1



GetName: 39416 APRIZESAT 7

Hit Count: updated at: Sun, 16 Dec 2018 11:09:34 GMT